Regional Weather Roundup
Issued by NWS

Home | Current Version | Previous Version | Text Only | Print | Product List | Glossary On
Versions: 1 2 3 4 5 6 7 8 9 10 11 12 13 14 15 16 17 18 19 20 21 22 23 24 25 26 27 28 29 30 31 32 33 34 35 36 37 38 39 40 41 42 43 44 45 46 47 48 49 50
183
ASUS43 KLSX 180457
RWRMO

WEATHER SUMMARY FOR MISSOURI
NATIONAL WEATHER SERVICE SPRINGFIELD MO
1100 PM CST SAT FEB 17 2018

NOTE: "FAIR" INDICATES FEW OR NO CLOUDS BELOW 12,000 FEET WITH NO
       SIGNIFICANT WEATHER AND/OR OBSTRUCTIONS TO VISIBILITY.
       CURRENT SKY AND/OR WEATHER CONDITIONS ARE NOT AVAILABLE FOR
       CHILLICOTHE AND FARMINGTON.

MOZ001>031-035>038-043-044-053-054-180600-
...NORTHERN AND WESTERN MISSOURI...

CITY           SKY/WX    TMP DP  RH WIND       PRES   REMARKS
KANSAS CTY INT CLEAR     35  19  52 E5        30.18R
LEE`S SUMMIT   CLEAR     39  20  46 S8        30.18F
ST JOSEPH      CLEAR     27  23  85 CALM      30.18S
CHILLICOTHE      N/A     26  18  71 CALM      30.21S

$$
MOZ066>068-077>081-088>096-101>105-180600-
...SOUTHWEST MISSOURI...

CITY           SKY/WX    TMP DP  RH WIND       PRES   REMARKS
SPRINGFIELD    CLEAR     32  31  96 S5        30.21S WCI  27
JOPLIN         CLEAR     41  35  79 SE7       30.21F

$$
MOZ032>034-039>042-045>050-055>058-069>072-180600-
...CENTRAL MISSOURI...

CITY           SKY/WX    TMP DP  RH WIND       PRES   REMARKS
COLUMBIA       NOT AVBL
JEFFERSON CITY CLEAR     28  25  88 SE6       30.23R WCI  22
ROLLA          CLEAR     28  25  88 CALM      30.22S
SEDALIA        CLEAR     34  23  64 S9        30.22R WCI  27
WARRENSBURG    CLEAR     32  23  69 S6        30.20S WCI  26

$$
MOZ051-052-059>065-180600-
...EAST CENTRAL MISSOURI...

CITY           SKY/WX    TMP DP  RH WIND       PRES   REMARKS
ST LOUIS INTL  CLEAR     31  30  96 CALM      30.23S
ST CHARLES     CLEAR     28  28 100 CALM      30.23S FOG

$$
MOZ072>076-082>087-097>100-106>115-180600-
...SOUTH CENTRAL AND SOUTHEAST MISSOURI...

CITY           SKY/WX    TMP DP  RH WIND       PRES   REMARKS
CAPE GIRARDEAU FOG       32  31  96 CALM      30.26R VSB 1/4
FARMINGTON     MOCLDY    28  28 100 CALM      30.24S FOG
POPLAR BLUFF   FAIR      32  32 100 CALM      30.26S FOG
WEST PLAINS    CLEAR     32  31  96 SW5       30.24S FOG     WCI  27

$$



USA.gov is the U.S. government's official web portal to all federal, state and local government web resources and services.